User: anonymous   Login
Location: Unspecified
(0.0000°N, 0.0000°E)
Time: 09:16:45
(UTC+00:00)
Language:

SKYNET 4F - Orbit

View from above orbital plane
View from above orbital plane
View from above satellite
View from above satellite

Ground track
Ground track

The orbit data is extracted from the following two-line orbital elements,

1 26695U 01005B   18018.34840983 -.00000246 +00000-0 +00000-0 0  9994
2 26695 009.1336 035.1531 0002484 262.5470 271.4721 01.00273145062087
Epoch (UTC): 18 January 2018 08:21:42
Eccentricity: 0.0002484
inclination: 9.1336°
perigee height: 35775 km
apogee height: 35796 km
right ascension of ascending node: 35.1531°
argument of perigee: 262.5470°
revolutions per day: 1.00273145
mean anomaly at epoch: 271.4721°
orbit number at epoch: 6208

The dashed part of the orbit path shows where the satellite is in the earth's shadow,  

DLR